This is the latest recevied weather packets stored in our database for station/object KE5VT. If no packets are shown the sender has not sent any weather packets the latest 10 day(s).
| Time | Temp. | Humidity | Pressure | Rain* | Wind** | Luminosity | Snow |
|---|---|---|---|---|---|---|---|
| 1787921766 | 22.78° C | 98% | 1013.8 hPa | 0 mm | - | 66 W/m² | - |
| 1787921461 | 22.78° C | 98% | 1013.7 hPa | 0 mm | - | 60 W/m² | - |
| 1787921155 | 22.78° C | 99% | 1013.7 hPa | 0 mm | - | 57 W/m² | - |
| 1787920851 | 22.78° C | 99% | 1013.6 hPa | 0 mm | - | 45 W/m² | - |
| 1787920545 | 22.78° C | 99% | 1013.7 hPa | 0 mm | - | 41 W/m² | - |
| 1787920246 | 22.78° C | 99% | 1013.7 hPa | 0 mm | - | 57 W/m² | - |
| 1787919938 | 22.78° C | 99% | 1013.6 hPa | 0 mm | - | 43 W/m² | - |
| 1787919637 | 22.78° C | 99% | 1013.6 hPa | 0 mm | - | 51 W/m² | - |
| 1787919333 | 22.78° C | 99% | 1013.8 hPa | 0 mm | - | 40 W/m² | - |
| 1787919029 | 22.78° C | 99% | 1013.7 hPa | 0 mm | - | 36 W/m² | - |
| 1787918723 | 22.78° C | 99% | 1013.7 hPa | 0 mm | - | 40 W/m² | - |
| 1787918422 | 22.78° C | 99% | 1013.7 hPa | 0 mm | - | 35 W/m² | - |
| 1787918116 | 22.22° C | 99% | 1013.7 hPa | 0 mm | - | 25 W/m² | - |
| 1787917815 | 22.22° C | 99% | 1013.5 hPa | 0 mm | - | 21 W/m² | - |
| 1787917513 | 22.22° C | 99% | 1013.4 hPa | 0 mm | - | 14 W/m² | - |
| 1787917209 | 22.22° C | 99% | 1013.5 hPa | 0 mm | - | 17 W/m² | - |
| 1787916908 | 22.22° C | 99% | 1013.4 hPa | 0 mm | - | 14 W/m² | - |
| 1787916608 | 22.22° C | 99% | 1013.4 hPa | 0 mm | - | 11 W/m² | - |
| 1787916302 | 22.22° C | 99% | 1013.5 hPa | 0 mm | - | 9 W/m² | - |
| 1787915996 | 22.22° C | 99% | 1013.2 hPa | 0 mm | - | 7 W/m² | - |
| 1787915692 | 22.22° C | 99% | 1013.2 hPa | 0 mm | - | 5 W/m² | - |
| 1787915388 | 22.22° C | 99% | 1013.2 hPa | 0 mm | - | 3 W/m² | - |
| 1787915088 | 22.22° C | 99% | 1013 hPa | 0 mm | - | 2 W/m² | - |
| 1787914786 | 22.22° C | 99% | 1013.1 hPa | 0 mm | - | 1 W/m² | - |
| 1787914482 | 22.22° C | 99% | 1012.8 hPa | 0 mm | - | 1 W/m² | - |
* Rain latest hour (hover to see other rain measurements)
** Current wind speed in m/s (hover to see current wind gust speed)